Weather History for Winner, SD

Change the Weather History Date:

Thursday, March 28, 2013

  Actual Average Record
Temperature  
Mean Temperature 46 °F 41 °F  
Max Temperature 61 °F 53 °F 75 °F (2012)
Min Temperature 30 °F 29 °F 18 °F (2009)
Degree Days  
Heating Degree Days 19 24  
Month to date heating degree days 963 806  
Since 1 July heating degree days 5626 5815  
Cooling Degree Days 0 0  
Month to date cooling degree days 0 0  
Year to date cooling degree days 0 0  
Moisture  
Dew Point 31 °F    
Average Humidity 56    
Maximum Humidity 72    
Minimum Humidity 39    
Precipitation  
Precipitation T in 0.08 in 0.03 in (2014)
Month to date precipitation 0.57 1.12  
Year to date precipitation 0.57 1.88  
Sea Level Pressure  
Sea Level Pressure 30.13 in    
Wind  
Wind Speed 13 mph (SE)    
Max Wind Speed 24 mph    
Max Gust Speed 30 mph    
Visibility 10 miles    
Events Rain    
T = Trace of Precipitation, MM = Missing Value Source: NWS Daily Summary

Daily Weather History Graph

Daily Weather History Graph

Search for Another Location

Airport:

Trip Planner

Search our weather history database for the weather conditions in past years. The results will help you decide how hot, cold, wet, or windy it might be!

Date:

Astronomy

Mar. 28, 2013 Rise Set
Actual Time 7:27 AM CDT 8:01 PM CDT
Civil Twilight 6:59 AM CDT 8:30 PM CDT
Nautical Twilight 6:25 AM CDT 9:04 PM CDT
Astronomical Twilight 5:50 AM CDT 9:39 PM CDT
Moon 9:59 PM CDT (3/28) 7:53 AM CDT (3/28)
Length of Visible Light 13h 31m
Length of Day
12h 33m
Full, 98% of the Moon is Illuminated
Mar 28
Full
Apr 2
Last Quarter
Apr 10
New
Apr 18
First Quarter
Apr 25
Full

Hourly Weather History & Observations

Time (CDT) Temp. Windchill Dew Point Humidity Pressure Visibility Wind Dir Wind Speed Gust Speed Precip Events Conditions
12:53 AM 35.1 °F 29.3 °F 24.1 °F 64% 30.17 in 10.0 mi SSE 6.9 mph - N/A   Clear
1:53 AM 35.1 °F 29.3 °F 24.1 °F 64% 30.18 in 10.0 mi South 6.9 mph - N/A   Clear
2:53 AM 35.1 °F 29.3 °F 25.0 °F 67% 30.17 in 10.0 mi South 6.9 mph - N/A   Clear
3:53 AM 37.9 °F - 24.1 °F 57% 30.15 in 10.0 mi Calm Calm - N/A   Clear
4:53 AM 30.9 °F 27.5 °F 23.0 °F 72% 30.15 in 10.0 mi East 3.5 mph - N/A   Clear
5:53 AM 34.0 °F 28.8 °F 23.0 °F 64% 30.14 in 10.0 mi SE 5.8 mph - N/A   Partly Cloudy
6:53 AM 35.1 °F 30.1 °F 25.0 °F 67% 30.14 in 10.0 mi SSE 5.8 mph - N/A   Scattered Clouds
7:53 AM 36.0 °F 30.3 °F 27.0 °F 70% 30.14 in 10.0 mi SSE 6.9 mph - N/A   Mostly Cloudy
8:53 AM 39.9 °F 32.9 °F 30.0 °F 68% 30.15 in 10.0 mi South 11.5 mph - N/A   Partly Cloudy
9:53 AM 44.1 °F 37.4 °F 34.0 °F 68% 30.14 in 10.0 mi SSW 13.8 mph - N/A   Overcast
10:53 AM 46.9 °F - 39.0 °F 74% 30.15 in 10.0 mi South 11.5 mph - 0.00 in Rain Light Rain
11:53 AM 52.0 °F - 37.9 °F 59% 30.14 in 10.0 mi SSE 12.7 mph - 0.00 in Rain Light Rain
12:53 PM 54.0 °F - 37.9 °F 55% 30.13 in 10.0 mi SE 17.3 mph - 0.00 in   Overcast
1:53 PM 57.0 °F - 35.1 °F 44% 30.12 in 10.0 mi SSE 15.0 mph 23.0 mph N/A   Overcast
2:53 PM 57.9 °F - 35.1 °F 42% 30.11 in 10.0 mi SSE 19.6 mph 29.9 mph N/A   Clear
3:53 PM 59.0 °F - 36.0 °F 42% 30.09 in 10.0 mi SE 20.7 mph 24.2 mph N/A   Clear
4:53 PM 60.1 °F - 36.0 °F 41% 30.09 in 10.0 mi ESE 20.7 mph 25.3 mph N/A   Clear
6:53 PM 57.9 °F - 35.1 °F 42% 30.08 in 10.0 mi ESE 20.7 mph - N/A   Clear
7:53 PM 51.1 °F - 34.0 °F 52% 30.11 in 10.0 mi East 12.7 mph - N/A   Clear
8:53 PM 46.0 °F 40.2 °F 30.9 °F 56% 30.12 in 10.0 mi SE 12.7 mph - N/A   Clear
9:53 PM 46.0 °F 39.6 °F 30.9 °F 56% 30.13 in 10.0 mi SE 15.0 mph - N/A   Clear
10:53 PM 46.0 °F 39.3 °F 30.0 °F 54% 30.13 in 10.0 mi SSE 16.1 mph - N/A   Clear
11:53 PM 46.0 °F 39.6 °F 28.9 °F 51% 30.12 in 10.0 mi SSE 15.0 mph - N/A   Clear